sat.trackr.live / text

‹ back to catalog

X-SAT

NORAD 37389 · 2011-015C

PAYLOAD ACTIVE UNKNOWN

§ Identity

Operator
Country
SING
Launch date
2011-04-20
Launch site
SRILR
Launch vehicle
Mass (kg)
RCS (m²)
0.47

Purposes: science

External: N2YO · Heavens-Above · Gunter

§ Orbital elements

Epoch: 2026-09-10T04:09:49.419360Z

Period
101.04 min
Inclination
98.3610°
Eccentricity
0.0015270
Mean motion
14.25227692 rev/d
Perigee alt
796.8 km
Apogee alt
818.7 km
Semi-major
7,185.9 km
B*
8.7233e-5
RAAN
226.1888°
Arg perigee
92.6696°
Mean anomaly
267.6232°
Rev number
79,978

§ Raw data

X-SAT1 37389U 11015C   26253.17348865  .00000164  00000+0  87233-4 0  99952 37389  98.3610 226.1888 0015270  92.6696 267.6232 14.25227692799785

JSON: /api/v1/satellites/37389 · /tle

For live sub-satellite position, see the globe view (requires WebGL).

§ Visibility from observer

Set your observer location to see the next 7 days of passes ≥ 10°. The values pass through the URL so the page stays shareable.

No JS? Fill the form by hand. The geolocation button needs JavaScript.